ICEYE-X62

导读

ICEYE-X62是芬兰冰眼(ICEYE)公司于2025年11月28日发射的合成孔径雷达(SAR)卫星,隶属于该公司商用SAR遥感星座。作为ICEYE星座的最新成员,它延续了该系列微型化、高分辨率的设计特点,可不受昼夜、云雨条件限制,为全球用户提供对地观测服务,服务领域涵盖灾害监测、资源勘探、国防安全等,进一步扩充了该星座的持续观测能力。

基本信息
目录编号:
66755
目录名称:
ICEYE-X62
国际标识:
2025-276CT
轨道中心:
EARTH
卫星名称:
ICEYE-X62
卫星全名:
ICEYE-X62
卫星状态:
在轨 (已飞行241 天)
发射日期:
2025-11-28 UTC
国别 :
波兰 (PL)
星等 :
--
轨道信息
数据来源 国际轨道数据
星历时间: 2026-07-27T11:38:43+0800
18小时前
查看轨道信息
半长轴: 6913.556km
偏心率: 0.0001877
轨道倾角: 97.419°
近地点辐角 189.252°
升交点赤经 279.108°
平近点角 170.868°
近地点: 534.121km
远地点: 536.717km
周期: 95.348分钟
每日圈数: 15.102561
详细信息
使用方式:
暂无
2D轨道图
3D轨道图
轨道高度分析图
轨道倾角分析图
轨道综合分析图
查看轨道综合分析图